Location: Dennis Manor
(64.8292°N, 147.5397°W)
Time: 09:19:35
(UTC+00:00)

Envisat - Pass Details

Date: 02 November 2020
Orbit: 764 x 766 km, 98.1° (Epoch: 05 December)

Event Time Altitude Azimuth Distance (km) Brightness Sun altitude
Rises 02:55:57 0° 176° (S) 3,230 6.4 -9.5°
Reaches altitude 10° 02:58:19 10° 181° (S) 2,307 5.7 -9.7°
Maximum altitude 03:03:17 54° 259° (WSW) 938 3.9 -10.2°
Drops below altitude 10° 03:08:18 10° 337° (NNW) 2,320 5.6 -10.8°
Sets 03:10:41 0° 342° (NNW) 3,250 6.3 -11.0°
